[Date Prev][Date Next][Thread Prev][Thread Next] - [Date Index][Thread Index][Author Index]

2 Line ISS Keps 5-29



ISS
1 25544U 98067A   03149.15300926  .00015243  00000-0  19366-3 0   559
2 25544  51.6307 115.8771 0005990 164.5601  14.6560 15.59597735258036


----
Via the sarex mailing list at AMSAT.ORG courtesy of AMSAT-NA.
To unsubscribe, send "unsubscribe sarex" to Majordomo@amsat.org



AMSAT Top AMSAT Home